TimeNZST,TemperatureF,Dew PointF,Humidity,Sea Level PressureIn,VisibilityMPH,Wind Direction,Wind SpeedMPH,Gust SpeedMPH,PrecipitationIn,Events,Conditions,WindDirDegrees,DateUTC
12:00 AM,33.8,32.0,93,30.24,6.2,West,1.2,-,N/A,Fog,Unknown,280,2013-05-07 12:00:00
1:00 AM,33.8,33.8,100,30.24,3.7,NNW,1.2,-,N/A,,Unknown,340,2013-05-07 13:00:00
2:00 AM,32.0,32.0,100,30.24,6.2,WNW,2.3,-,N/A,Fog,Patches of Fog,290,2013-05-07 14:00:00
3:00 AM,32.0,32.0,100,30.24,-9999.0,NW,2.3,-,N/A,,Clear,310,2013-05-07 15:00:00
4:00 AM,33.8,32.0,93,30.24,6.2,NW,3.5,-,N/A,Fog,Unknown,310,2013-05-07 16:00:00
5:00 AM,32.0,32.0,100,30.24,6.2,WNW,3.5,-,N/A,Fog,Unknown,300,2013-05-07 17:00:00
6:00 AM,32.0,30.2,93,30.24,6.2,WNW,1.2,-,N/A,Fog,Unknown,290,2013-05-07 18:00:00
7:00 AM,30.2,30.2,100,30.27,6.2,West,1.2,-,N/A,,Unknown,280,2013-05-07 19:00:00
8:00 AM,30.2,30.2,100,30.27,-9999.0,WSW,1.2,-,N/A,,Clear,240,2013-05-07 20:00:00
9:00 AM,37.4,35.6,93,30.30,-9999.0,WSW,1.2,-,N/A,,Clear,240,2013-05-07 21:00:00
10:00 AM,46.4,42.8,87,30.30,-9999.0,North,1.2,-,N/A,,Clear,350,2013-05-07 22:00:00
11:00 AM,51.8,42.8,71,30.30,-9999.0,NE,2.3,-,N/A,,Clear,40,2013-05-07 23:00:00
12:00 PM,53.6,42.8,67,30.30,-9999.0,NE,5.8,-,N/A,,Clear,40,2013-05-08 00:00:00
1:00 PM,57.2,42.8,59,30.27,-9999.0,NE,5.8,-,N/A,,Clear,40,2013-05-08 01:00:00
2:00 PM,57.2,42.8,59,30.24,-9999.0,NE,10.4,-,N/A,,Clear,50,2013-05-08 02:00:00
3:00 PM,57.2,42.8,59,30.24,-9999.0,ENE,10.4,-,N/A,,Clear,60,2013-05-08 03:00:00
4:00 PM,55.4,44.6,67,30.24,-9999.0,ENE,10.4,-,N/A,,Clear,70,2013-05-08 04:00:00
5:00 PM,53.6,44.6,72,30.24,-9999.0,East,9.2,-,N/A,,Clear,80,2013-05-08 05:00:00
6:00 PM,50.0,44.6,82,30.24,-9999.0,East,5.8,-,N/A,,Clear,90,2013-05-08 06:00:00
7:00 PM,46.4,42.8,87,30.24,-9999.0,NE,3.5,-,N/A,,Clear,40,2013-05-08 07:00:00
8:00 PM,44.6,41.0,87,30.24,-9999.0,NE,5.8,-,N/A,,Clear,40,2013-05-08 08:00:00
9:00 PM,44.6,42.8,93,30.24,6.2,ENE,4.6,-,N/A,,Scattered Clouds,60,2013-05-08 09:00:00
10:00 PM,44.6,44.6,100,30.24,6.2,NE,3.5,-,N/A,,Mostly Cloudy,50,2013-05-08 10:00:00
11:00 PM,41.0,39.2,93,30.24,6.2,North,1.2,-,N/A,,Mostly Cloudy,360,2013-05-08 11:00:00